contact:dominique.lefevre@mio.osupytheas.fr, maurice.libes@osupytheas.fr, didier.mallarino@osupytheas.fr
Project:EMSO http://www.emso-fr.org/EMSO-France
Depth: 2436.0 m
Title:EMSO Ligure Ouest : Data MII capteur MICROCAT
DateTime_Computer,Latitude,Longitude,Temperature,Conductivity,Pressure,DateTime_Instrument
DateTime_Computer,Latitude,Longitude,degC,S m-1,dbar,DateTime_Instrument
2020-05-14T00:00:50Z,42.805,6.029,13.3002,4.60001,2470.124,2020-5-14T02:01:32Z
2020-05-14T00:03:53Z,42.805,6.029,13.3009,4.60006,2470.147,2020-5-14T02:04:35Z
2020-05-14T00:06:56Z,42.805,6.029,13.3014,4.60004,2470.124,2020-5-14T02:07:38Z
2020-05-14T00:10:00Z,42.805,6.029,13.3003,4.59994,2470.147,2020-5-14T02:10:42Z
2020-05-14T00:13:03Z,42.805,6.029,13.3004,4.59996,2470.156,2020-5-14T02:13:45Z
2020-05-14T00:16:06Z,42.805,6.029,13.3011,4.59997,2470.156,2020-5-14T02:16:48Z
2020-05-14T00:19:09Z,42.805,6.029,13.2994,4.59993,2470.156,2020-5-14T02:19:51Z
2020-05-14T00:22:13Z,42.805,6.029,13.2998,4.59996,2470.124,2020-5-14T02:22:54Z
2020-05-14T00:25:16Z,42.805,6.029,13.2998,4.59991,2470.156,2020-5-14T02:25:58Z
2020-05-14T00:28:19Z,42.805,6.029,13.3004,4.59996,2470.133,2020-5-14T02:29:01Z
2020-05-14T00:31:22Z,42.805,6.029,13.3006,4.60001,2470.156,2020-5-14T02:32:04Z
2020-05-14T00:34:26Z,42.805,6.029,13.2996,4.60003,2470.171,2020-5-14T02:35:07Z
2020-05-14T00:37:29Z,42.805,6.029,13.3004,4.60001,2470.156,2020-5-14T02:38:11Z
2020-05-14T00:40:32Z,42.805,6.029,13.3007,4.59998,2470.171,2020-5-14T02:41:14Z
2020-05-14T00:43:35Z,42.805,6.029,13.3014,4.60001,2470.156,2020-5-14T02:44:17Z
2020-05-14T00:46:38Z,42.805,6.029,13.3000,4.60000,2470.171,2020-5-14T02:47:20Z
2020-05-14T00:49:42Z,42.805,6.029,13.2996,4.59997,2470.133,2020-5-14T02:50:24Z
2020-05-14T00:52:45Z,42.805,6.029,13.2993,4.59999,2470.156,2020-5-14T02:53:27Z
2020-05-14T00:55:48Z,42.805,6.029,13.2993,4.60000,2470.147,2020-5-14T02:56:30Z
2020-05-14T00:58:52Z,42.805,6.029,13.2996,4.60003,2470.133,2020-5-14T02:59:33Z
2020-05-14T01:01:55Z,42.805,6.029,13.2998,4.59995,2470.147,2020-5-14T03:02:37Z
2020-05-14T01:04:58Z,42.805,6.029,13.2998,4.60009,2470.171,2020-5-14T03:05:40Z
2020-05-14T01:08:01Z,42.805,6.029,13.3002,4.59994,2470.171,2020-5-14T03:08:43Z
2020-05-14T01:11:05Z,42.805,6.029,13.3002,4.60007,2470.147,2020-5-14T03:11:46Z
2020-05-14T01:14:08Z,42.805,6.029,13.3002,4.59992,2470.156,2020-5-14T03:14:50Z
2020-05-14T01:17:11Z,42.805,6.029,13.2994,4.59986,2470.147,2020-5-14T03:17:53Z
2020-05-14T01:20:14Z,42.805,6.029,13.3000,4.59995,2470.194,2020-5-14T03:20:56Z
2020-05-14T01:23:18Z,42.805,6.029,13.3007,4.60002,2470.133,2020-5-14T03:23:59Z
2020-05-14T01:26:21Z,42.805,6.029,13.3011,4.59993,2470.147,2020-5-14T03:27:03Z
2020-05-14T01:29:24Z,42.805,6.029,13.2997,4.59994,2470.11,2020-5-14T03:30:06Z
2020-05-14T01:32:27Z,42.805,6.029,13.2996,4.59994,2470.147,2020-5-14T03:33:09Z
2020-05-14T01:35:31Z,42.805,6.029,13.3003,4.60019,2470.147,2020-5-14T03:36:12Z
2020-05-14T01:38:34Z,42.805,6.029,13.2994,4.60001,2470.124,2020-5-14T03:39:16Z
2020-05-14T01:41:37Z,42.805,6.029,13.2995,4.59996,2470.171,2020-5-14T03:42:19Z
2020-05-14T01:44:40Z,42.805,6.029,13.2994,4.59999,2470.133,2020-5-14T03:45:22Z
2020-05-14T01:47:43Z,42.805,6.029,13.3003,4.59996,2470.1,2020-5-14T03:48:25Z
2020-05-14T01:50:47Z,42.805,6.029,13.2998,4.60002,2470.171,2020-5-14T03:51:29Z
2020-05-14T01:53:50Z,42.805,6.029,13.2996,4.59987,2470.156,2020-5-14T03:54:32Z
2020-05-14T01:56:53Z,42.805,6.029,13.2994,4.59994,2470.133,2020-5-14T03:57:35Z
2020-05-14T01:59:56Z,42.805,6.029,13.2997,4.59996,2470.156,2020-5-14T04:00:38Z
2020-05-14T02:03:00Z,42.805,6.029,13.2998,4.59999,2470.171,2020-5-14T04:03:42Z
2020-05-14T02:06:03Z,42.805,6.029,13.3004,4.60001,2470.147,2020-5-14T04:06:45Z
2020-05-14T02:09:06Z,42.805,6.029,13.2996,4.59996,2470.147,2020-5-14T04:09:48Z
2020-05-14T02:12:09Z,42.805,6.029,13.3008,4.60003,2470.11,2020-5-14T04:12:51Z
2020-05-14T02:15:13Z,42.805,6.029,13.3029,4.59994,2470.133,2020-5-14T04:15:55Z
2020-05-14T02:18:16Z,42.805,6.029,13.3010,4.60024,2470.156,2020-5-14T04:18:58Z
2020-05-14T02:21:19Z,42.805,6.029,13.2996,4.60001,2470.11,2020-5-14T04:22:01Z
2020-05-14T02:24:22Z,42.805,6.029,13.3006,4.59993,2470.133,2020-5-14T04:25:04Z
2020-05-14T02:27:26Z,42.805,6.029,13.2998,4.59991,2470.147,2020-5-14T04:28:07Z
2020-05-14T02:30:29Z,42.805,6.029,13.3003,4.59989,2470.133,2020-5-14T04:31:11Z
2020-05-14T02:33:32Z,42.805,6.029,13.3007,4.60014,2470.11,2020-5-14T04:34:14Z
2020-05-14T02:36:35Z,42.805,6.029,13.3008,4.60004,2470.147,2020-5-14T04:37:17Z
2020-05-14T02:39:39Z,42.805,6.029,13.3016,4.59999,2470.124,2020-5-14T04:40:21Z
2020-05-14T02:42:42Z,42.805,6.029,13.3000,4.59994,2470.133,2020-5-14T04:43:24Z
2020-05-14T02:45:45Z,42.805,6.029,13.3003,4.59998,2470.1,2020-5-14T04:46:27Z
2020-05-14T02:48:49Z,42.805,6.029,13.2996,4.60003,2470.147,2020-5-14T04:49:30Z
2020-05-14T02:51:52Z,42.805,6.029,13.3019,4.60027,2470.11,2020-5-14T04:52:34Z
2020-05-14T02:54:55Z,42.805,6.029,13.2989,4.59991,2470.11,2020-5-14T04:55:37Z
2020-05-14T02:57:58Z,42.805,6.029,13.2998,4.60001,2470.11,2020-5-14T04:58:40Z
2020-05-14T03:01:02Z,42.805,6.029,13.3002,4.60006,2470.11,2020-5-14T05:01:43Z
2020-05-14T03:04:05Z,42.805,6.029,13.3004,4.60012,2470.087,2020-5-14T05:04:47Z
2020-05-14T03:07:08Z,42.805,6.029,13.3009,4.60014,2470.133,2020-5-14T05:07:50Z
2020-05-14T03:10:11Z,42.805,6.029,13.3005,4.60017,2470.133,2020-5-14T05:10:53Z
2020-05-14T03:13:15Z,42.805,6.029,13.3002,4.60015,2470.147,2020-5-14T05:13:57Z
2020-05-14T03:16:18Z,42.805,6.029,13.2985,4.60019,2470.11,2020-5-14T05:17:00Z
2020-05-14T03:19:21Z,42.805,6.029,13.3024,4.60010,2470.11,2020-5-14T05:20:03Z
2020-05-14T03:22:25Z,42.805,6.029,13.3014,4.60015,2470.11,2020-5-14T05:23:06Z
2020-05-14T03:25:28Z,42.805,6.029,13.3015,4.59997,2470.11,2020-5-14T05:26:10Z
2020-05-14T03:28:31Z,42.805,6.029,13.3006,4.60015,2470.073,2020-5-14T05:29:13Z
2020-05-14T03:31:34Z,42.805,6.029,13.2997,4.60007,2470.087,2020-5-14T05:32:16Z
2020-05-14T03:34:38Z,42.805,6.029,13.3010,4.60017,2470.11,2020-5-14T05:35:19Z
2020-05-14T03:37:41Z,42.805,6.029,13.3021,4.60015,2470.124,2020-5-14T05:38:23Z
2020-05-14T03:40:44Z,42.805,6.029,13.3001,4.60001,2470.11,2020-5-14T05:41:26Z
2020-05-14T03:43:47Z,42.805,6.029,13.3012,4.60017,2470.11,2020-5-14T05:44:29Z
2020-05-14T03:46:51Z,42.805,6.029,13.3004,4.60011,2470.077,2020-5-14T05:47:32Z
2020-05-14T03:49:54Z,42.805,6.029,13.2993,4.60007,2470.087,2020-5-14T05:50:36Z
2020-05-14T03:52:57Z,42.805,6.029,13.2999,4.60011,2470.077,2020-5-14T05:53:39Z
2020-05-14T03:56:00Z,42.805,6.029,13.3007,4.60011,2470.077,2020-5-14T05:56:42Z
2020-05-14T03:59:04Z,42.805,6.029,13.3035,4.60010,2470.1,2020-5-14T05:59:45Z
2020-05-14T04:02:07Z,42.805,6.029,13.3000,4.60008,2470.087,2020-5-14T06:02:49Z
2020-05-14T04:05:10Z,42.805,6.029,13.3004,4.59993,2470.11,2020-5-14T06:05:52Z
2020-05-14T04:08:13Z,42.805,6.029,13.2996,4.59996,2470.11,2020-5-14T06:08:55Z
2020-05-14T04:11:17Z,42.805,6.029,13.2992,4.60017,2470.063,2020-5-14T06:11:58Z
2020-05-14T04:14:20Z,42.805,6.029,13.3010,4.60006,2470.087,2020-5-14T06:15:02Z
2020-05-14T04:17:23Z,42.805,6.029,13.3015,4.59997,2470.077,2020-5-14T06:18:05Z
2020-05-14T04:20:26Z,42.805,6.029,13.3015,4.60009,2470.1,2020-5-14T06:21:08Z
2020-05-14T04:23:30Z,42.805,6.029,13.2999,4.60001,2470.053,2020-5-14T06:24:11Z
2020-05-14T04:26:33Z,42.805,6.029,13.3004,4.59996,2470.1,2020-5-14T06:27:15Z
2020-05-14T04:29:36Z,42.805,6.029,13.2996,4.60006,2470.049,2020-5-14T06:30:18Z
2020-05-14T04:32:39Z,42.805,6.029,13.3012,4.60003,2470.1,2020-5-14T06:33:21Z
2020-05-14T04:35:43Z,42.805,6.029,13.3008,4.60005,2470.077,2020-5-14T06:36:24Z
2020-05-14T04:38:46Z,42.805,6.029,13.3000,4.59996,2470.077,2020-5-14T06:39:28Z
2020-05-14T04:41:49Z,42.805,6.029,13.3007,4.59988,2470.077,2020-5-14T06:42:31Z
2020-05-14T04:44:52Z,42.805,6.029,13.2998,4.59996,2470.077,2020-5-14T06:45:34Z
2020-05-14T04:47:56Z,42.805,6.029,13.2990,4.59996,2470.1,2020-5-14T06:48:37Z
2020-05-14T04:50:59Z,42.805,6.029,13.3015,4.60010,2470.017,2020-5-14T06:51:41Z
2020-05-14T04:54:02Z,42.805,6.029,13.3006,4.60019,2470.053,2020-5-14T06:54:44Z
2020-05-14T04:57:05Z,42.805,6.029,13.3005,4.60019,2470.077,2020-5-14T06:57:47Z
2020-05-14T05:00:08Z,42.805,6.029,13.3011,4.59994,2470.063,2020-5-14T07:00:50Z
2020-05-14T05:03:12Z,42.805,6.029,13.3034,4.60015,2470.063,2020-5-14T07:03:54Z
2020-05-14T05:06:15Z,42.805,6.029,13.3006,4.59993,2470.1,2020-5-14T07:06:57Z
2020-05-14T05:09:18Z,42.805,6.029,13.2994,4.60003,2470.077,2020-5-14T07:10:00Z
2020-05-14T05:12:21Z,42.805,6.029,13.3004,4.60024,2470.063,2020-5-14T07:13:03Z
2020-05-14T05:15:25Z,42.805,6.029,13.3002,4.60010,2470.04,2020-5-14T07:16:07Z
2020-05-14T05:18:28Z,42.805,6.029,13.2996,4.60003,2470.053,2020-5-14T07:19:10Z
2020-05-14T05:21:31Z,42.805,6.029,13.3030,4.60009,2470.017,2020-5-14T07:22:13Z
2020-05-14T05:24:35Z,42.805,6.029,13.2999,4.60007,2470.04,2020-5-14T07:25:17Z
2020-05-14T05:27:38Z,42.805,6.029,13.3000,4.59996,2470.053,2020-5-14T07:28:20Z
2020-05-14T05:30:41Z,42.805,6.029,13.3014,4.60000,2470.063,2020-5-14T07:31:23Z
2020-05-14T05:33:45Z,42.805,6.029,13.3015,4.60000,2470.053,2020-5-14T07:34:26Z
2020-05-14T05:36:48Z,42.805,6.029,13.3025,4.60011,2470.077,2020-5-14T07:37:30Z
2020-05-14T05:39:51Z,42.805,6.029,13.3004,4.60006,2470.04,2020-5-14T07:40:33Z
2020-05-14T05:42:54Z,42.805,6.029,13.3011,4.59993,2470.063,2020-5-14T07:43:36Z
2020-05-14T05:45:57Z,42.805,6.029,13.3009,4.59999,2470.077,2020-5-14T07:46:39Z
2020-05-14T05:49:01Z,42.805,6.029,13.3007,4.60003,2470.04,2020-5-14T07:49:43Z
2020-05-14T05:52:04Z,42.805,6.029,13.2986,4.59996,2470.04,2020-5-14T07:52:46Z
2020-05-14T05:55:07Z,42.805,6.029,13.3002,4.60001,2470.063,2020-5-14T07:55:49Z
2020-05-14T05:58:11Z,42.805,6.029,13.3010,4.60029,2470.03,2020-5-14T07:58:52Z
2020-05-14T06:01:14Z,42.805,6.029,13.3000,4.60029,2470.053,2020-5-14T08:01:56Z
2020-05-14T06:04:17Z,42.805,6.029,13.3007,4.60011,2470.04,2020-5-14T08:04:59Z
2020-05-14T06:07:20Z,42.805,6.029,13.3009,4.60002,2470.04,2020-5-14T08:08:02Z
2020-05-14T06:10:24Z,42.805,6.029,13.3005,4.60000,2470.077,2020-5-14T08:11:05Z
2020-05-14T06:13:27Z,42.805,6.029,13.3013,4.59999,2470.04,2020-5-14T08:14:09Z
2020-05-14T06:16:30Z,42.805,6.029,13.3006,4.60005,2470.04,2020-5-14T08:17:12Z
2020-05-14T06:19:33Z,42.805,6.029,13.3002,4.60011,2470.053,2020-5-14T08:20:15Z
2020-05-14T06:22:37Z,42.805,6.029,13.3039,4.60014,2470.053,2020-5-14T08:23:18Z
2020-05-14T06:25:40Z,42.805,6.029,13.2998,4.60005,2470.007,2020-5-14T08:26:22Z
2020-05-14T06:28:43Z,42.805,6.029,13.3002,4.60006,2470.053,2020-5-14T08:29:25Z
2020-05-14T06:31:46Z,42.805,6.029,13.3008,4.60005,2470.04,2020-5-14T08:32:28Z
2020-05-14T06:34:50Z,42.805,6.029,13.3010,4.60014,2470.017,2020-5-14T08:35:31Z
2020-05-14T06:37:53Z,42.805,6.029,13.3014,4.59998,2470.017,2020-5-14T08:38:35Z
2020-05-14T06:40:56Z,42.805,6.029,13.3025,4.60010,2470.04,2020-5-14T08:41:38Z
2020-05-14T06:44:00Z,42.805,6.029,13.3018,4.60001,2470.053,2020-5-14T08:44:41Z
2020-05-14T06:47:03Z,42.805,6.029,13.3022,4.60023,2470.03,2020-5-14T08:47:45Z
2020-05-14T06:50:06Z,42.805,6.029,13.3026,4.60011,2470.04,2020-5-14T08:50:48Z
2020-05-14T06:53:09Z,42.805,6.029,13.3006,4.60011,2470.053,2020-5-14T08:53:51Z
2020-05-14T06:56:13Z,42.805,6.029,13.3019,4.59999,2470.04,2020-5-14T08:56:54Z
2020-05-14T06:59:16Z,42.805,6.029,13.3017,4.60012,2470.04,2020-5-14T08:59:58Z
2020-05-14T07:02:19Z,42.805,6.029,13.3011,4.60016,2470.053,2020-5-14T09:03:01Z
2020-05-14T07:05:22Z,42.805,6.029,13.3012,4.60002,2470.04,2020-5-14T09:06:04Z
2020-05-14T07:08:26Z,42.805,6.029,13.3013,4.60003,2470.017,2020-5-14T09:09:08Z
2020-05-14T07:11:29Z,42.805,6.029,13.3005,4.60009,2470.053,2020-5-14T09:12:11Z
2020-05-14T07:14:32Z,42.805,6.029,13.3001,4.60003,2470.03,2020-5-14T09:15:14Z
2020-05-14T07:17:35Z,42.805,6.029,13.3001,4.60000,2470.017,2020-5-14T09:18:17Z
2020-05-14T07:20:39Z,42.805,6.029,13.3015,4.60010,2470.04,2020-5-14T09:21:21Z
2020-05-14T07:23:42Z,42.805,6.029,13.3011,4.60004,2470.017,2020-5-14T09:24:24Z
2020-05-14T07:26:45Z,42.805,6.029,13.3015,4.60001,2470.04,2020-5-14T09:27:27Z
2020-05-14T07:29:48Z,42.805,6.029,13.3004,4.60009,2469.993,2020-5-14T09:30:30Z
2020-05-14T07:32:52Z,42.805,6.029,13.3021,4.60008,2470.03,2020-5-14T09:33:33Z
2020-05-14T07:35:55Z,42.805,6.029,13.3009,4.59999,2470.007,2020-5-14T09:36:37Z
2020-05-14T07:38:58Z,42.805,6.029,13.2997,4.60002,2470.03,2020-5-14T09:39:40Z
2020-05-14T07:42:01Z,42.805,6.029,13.3006,4.59999,2469.993,2020-5-14T09:42:43Z
2020-05-14T07:45:05Z,42.805,6.029,13.3006,4.60014,2470.03,2020-5-14T09:45:46Z
2020-05-14T07:48:08Z,42.805,6.029,13.3020,4.60014,2470.03,2020-5-14T09:48:50Z
2020-05-14T07:51:11Z,42.805,6.029,13.2996,4.60017,2469.993,2020-5-14T09:51:53Z
2020-05-14T07:54:14Z,42.805,6.029,13.3013,4.60017,2470.03,2020-5-14T09:54:56Z
2020-05-14T07:57:18Z,42.805,6.029,13.3009,4.59995,2469.993,2020-5-14T09:57:59Z
2020-05-14T08:00:21Z,42.805,6.029,13.3001,4.60009,2470.03,2020-5-14T10:01:03Z
2020-05-14T08:03:24Z,42.805,6.029,13.3013,4.59996,2470.017,2020-5-14T10:04:06Z
2020-05-14T08:06:27Z,42.805,6.029,13.2999,4.60005,2470.03,2020-5-14T10:07:09Z
2020-05-14T08:09:31Z,42.805,6.029,13.3030,4.60006,2469.993,2020-5-14T10:10:12Z
2020-05-14T08:12:34Z,42.805,6.029,13.3009,4.60010,2469.993,2020-5-14T10:13:16Z
2020-05-14T08:15:37Z,42.805,6.029,13.3012,4.60011,2470.053,2020-5-14T10:16:19Z
2020-05-14T08:18:40Z,42.805,6.029,13.3026,4.60014,2470.007,2020-5-14T10:19:22Z
2020-05-14T08:21:44Z,42.805,6.029,13.3020,4.60003,2470.017,2020-5-14T10:22:26Z
2020-05-14T08:24:47Z,42.805,6.029,13.3021,4.60006,2470.03,2020-5-14T10:25:29Z
2020-05-14T08:27:50Z,42.805,6.029,13.3025,4.60017,2469.993,2020-5-14T10:28:32Z
2020-05-14T08:30:53Z,42.805,6.029,13.3051,4.60006,2469.993,2020-5-14T10:31:35Z
2020-05-14T08:33:57Z,42.805,6.029,13.3030,4.59999,2470.017,2020-5-14T10:34:39Z
2020-05-14T08:37:00Z,42.805,6.029,13.3023,4.60005,2470.03,2020-5-14T10:37:42Z
2020-05-14T08:40:03Z,42.805,6.029,13.3009,4.60004,2469.993,2020-5-14T10:40:45Z
2020-05-14T08:43:07Z,42.805,6.029,13.3056,4.60006,2470.03,2020-5-14T10:43:48Z
2020-05-14T08:46:10Z,42.805,6.029,13.3006,4.60009,2470.03,2020-5-14T10:46:52Z
2020-05-14T08:49:13Z,42.805,6.029,13.3011,4.60001,2470.007,2020-5-14T10:49:55Z
2020-05-14T08:52:16Z,42.805,6.029,13.3014,4.60008,2470.04,2020-5-14T10:52:58Z
2020-05-14T08:55:20Z,42.805,6.029,13.3017,4.60011,2470.017,2020-5-14T10:56:01Z
2020-05-14T08:58:23Z,42.805,6.029,13.3020,4.60014,2470.053,2020-5-14T10:59:05Z
2020-05-14T09:01:26Z,42.805,6.029,13.3057,4.60013,2470.017,2020-5-14T11:02:08Z
2020-05-14T09:04:29Z,42.805,6.029,13.3031,4.60020,2470.017,2020-5-14T11:05:11Z
2020-05-14T09:07:32Z,42.805,6.029,13.3011,4.60044,2470.017,2020-5-14T11:08:14Z
2020-05-14T09:10:36Z,42.805,6.029,13.3054,4.60024,2470.007,2020-5-14T11:11:18Z
2020-05-14T09:13:39Z,42.805,6.029,13.3046,4.60019,2470.03,2020-5-14T11:14:21Z
2020-05-14T09:16:42Z,42.805,6.029,13.3036,4.60011,2470.03,2020-5-14T11:17:24Z
2020-05-14T09:19:45Z,42.805,6.029,13.3026,4.60006,2470.03,2020-5-14T11:20:27Z
2020-05-14T09:22:49Z,42.805,6.029,13.3017,4.60020,2470.04,2020-5-14T11:23:30Z
2020-05-14T09:25:52Z,42.805,6.029,13.3046,4.60027,2470.03,2020-5-14T11:26:34Z
2020-05-14T09:28:55Z,42.805,6.029,13.3048,4.60014,2470.017,2020-5-14T11:29:37Z
2020-05-14T09:31:58Z,42.805,6.029,13.3043,4.60003,2470.017,2020-5-14T11:32:40Z
2020-05-14T09:35:02Z,42.805,6.029,13.3024,4.60010,2470.017,2020-5-14T11:35:43Z
2020-05-14T09:38:05Z,42.805,6.029,13.3029,4.60021,2470.003,2020-5-14T11:38:47Z
2020-05-14T09:41:08Z,42.805,6.029,13.3051,4.60009,2470.017,2020-5-14T11:41:50Z
2020-05-14T09:44:11Z,42.805,6.029,13.3029,4.60001,2470.03,2020-5-14T11:44:53Z
2020-05-14T09:47:15Z,42.805,6.029,13.3043,4.60001,2469.993,2020-5-14T11:47:56Z
2020-05-14T09:50:18Z,42.805,6.029,13.3040,4.60014,2470.007,2020-5-14T11:51:00Z
2020-05-14T09:53:21Z,42.805,6.029,13.3032,4.60004,2469.993,2020-5-14T11:54:03Z
2020-05-14T09:56:24Z,42.805,6.029,13.3017,4.60003,2470.03,2020-5-14T11:57:06Z
2020-05-14T09:59:28Z,42.805,6.029,13.3034,4.60004,2470.007,2020-5-14T12:00:09Z
2020-05-14T10:02:31Z,42.805,6.029,13.3040,4.60007,2470.017,2020-5-14T12:03:13Z
2020-05-14T10:05:34Z,42.805,6.029,13.3034,4.60000,2469.993,2020-5-14T12:06:16Z
2020-05-14T10:08:37Z,42.805,6.029,13.3012,4.60010,2470.04,2020-5-14T12:09:19Z
2020-05-14T10:11:40Z,42.805,6.029,13.3018,4.60016,2470.007,2020-5-14T12:12:22Z
2020-05-14T10:14:44Z,42.805,6.029,13.3021,4.60007,2470.007,2020-5-14T12:15:25Z
2020-05-14T10:17:47Z,42.805,6.029,13.3032,4.60011,2470.03,2020-5-14T12:18:29Z
2020-05-14T10:20:50Z,42.805,6.029,13.3026,4.60009,2470.04,2020-5-14T12:21:32Z
2020-05-14T10:23:53Z,42.805,6.029,13.3016,4.60003,2470.04,2020-5-14T12:24:35Z
2020-05-14T10:26:57Z,42.805,6.029,13.3024,4.60014,2469.993,2020-5-14T12:27:39Z
2020-05-14T10:30:00Z,42.805,6.029,13.3019,4.60015,2470.053,2020-5-14T12:30:42Z
2020-05-14T10:33:03Z,42.805,6.029,13.3024,4.59992,2470.04,2020-5-14T12:33:45Z
2020-05-14T10:36:06Z,42.805,6.029,13.3006,4.60015,2470.017,2020-5-14T12:36:48Z
2020-05-14T10:39:10Z,42.805,6.029,13.3015,4.60014,2470.04,2020-5-14T12:39:52Z
2020-05-14T10:42:13Z,42.805,6.029,13.3009,4.60003,2470.04,2020-5-14T12:42:55Z
2020-05-14T10:45:16Z,42.805,6.029,13.3011,4.59997,2470.04,2020-5-14T12:45:58Z
2020-05-14T10:48:19Z,42.805,6.029,13.3013,4.60004,2470.04,2020-5-14T12:49:01Z
2020-05-14T10:51:23Z,42.805,6.029,13.3009,4.60001,2470.04,2020-5-14T12:52:05Z
2020-05-14T10:54:26Z,42.805,6.029,13.3007,4.59996,2470.053,2020-5-14T12:55:08Z
2020-05-14T10:57:29Z,42.805,6.029,13.3011,4.60003,2470.053,2020-5-14T12:58:11Z
2020-05-14T11:00:33Z,42.805,6.029,13.3015,4.60005,2470.017,2020-5-14T13:01:14Z
2020-05-14T11:03:36Z,42.805,6.029,13.3005,4.59994,2470.03,2020-5-14T13:04:18Z
2020-05-14T11:06:39Z,42.805,6.029,13.3016,4.60008,2470.007,2020-5-14T13:07:21Z
2020-05-14T11:09:42Z,42.805,6.029,13.3010,4.60013,2470.077,2020-5-14T13:10:24Z
2020-05-14T11:12:45Z,42.805,6.029,13.3000,4.59988,2470.03,2020-5-14T13:13:27Z
2020-05-14T11:15:49Z,42.805,6.029,13.3000,4.60010,2470.053,2020-5-14T13:16:31Z
2020-05-14T11:18:52Z,42.805,6.029,13.3014,4.60002,2470.077,2020-5-14T13:19:34Z
2020-05-14T11:21:55Z,42.805,6.029,13.3005,4.60009,2470.077,2020-5-14T13:22:37Z
2020-05-14T11:24:58Z,42.805,6.029,13.3043,4.60010,2470.053,2020-5-14T13:25:40Z
2020-05-14T11:28:02Z,42.805,6.029,13.3006,4.60000,2470.077,2020-5-14T13:28:44Z
2020-05-14T11:31:05Z,42.805,6.029,13.3019,4.59996,2470.03,2020-5-14T13:31:47Z
2020-05-14T11:34:08Z,42.805,6.029,13.3005,4.60003,2470.087,2020-5-14T13:34:50Z
2020-05-14T11:37:12Z,42.805,6.029,13.3014,4.59996,2470.053,2020-5-14T13:37:53Z
2020-05-14T11:40:15Z,42.805,6.029,13.3004,4.59998,2470.04,2020-5-14T13:40:57Z
2020-05-14T11:43:18Z,42.805,6.029,13.3019,4.59991,2470.063,2020-5-14T13:44:00Z
2020-05-14T11:46:21Z,42.805,6.029,13.3008,4.60005,2470.007,2020-5-14T13:47:03Z
2020-05-14T11:49:25Z,42.805,6.029,13.3018,4.60003,2470.017,2020-5-14T13:50:06Z
2020-05-14T11:52:28Z,42.805,6.029,13.3003,4.59999,2470.053,2020-5-14T13:53:10Z
2020-05-14T11:55:31Z,42.805,6.029,13.3020,4.60004,2470.04,2020-5-14T13:56:13Z
2020-05-14T11:58:34Z,42.805,6.029,13.3006,4.59999,2470.04,2020-5-14T13:59:16Z
2020-05-14T12:01:37Z,42.805,6.029,13.3008,4.59986,2470.077,2020-5-14T14:02:19Z
2020-05-14T12:04:41Z,42.805,6.029,13.3006,4.60004,2470.053,2020-5-14T14:05:23Z
2020-05-14T12:07:44Z,42.805,6.029,13.3014,4.59996,2470.04,2020-5-14T14:08:26Z
2020-05-14T12:10:47Z,42.805,6.029,13.3004,4.59996,2470.04,2020-5-14T14:11:29Z
2020-05-14T12:13:50Z,42.805,6.029,13.3000,4.60004,2470.04,2020-5-14T14:14:32Z
2020-05-14T12:16:54Z,42.805,6.029,13.3007,4.59994,2470.04,2020-5-14T14:17:35Z
2020-05-14T12:19:57Z,42.805,6.029,13.2996,4.60000,2470.017,2020-5-14T14:20:39Z
2020-05-14T12:23:00Z,42.805,6.029,13.3008,4.59996,2470.04,2020-5-14T14:23:42Z
2020-05-14T12:26:03Z,42.805,6.029,13.3001,4.59995,2470.063,2020-5-14T14:26:45Z
2020-05-14T12:29:07Z,42.805,6.029,13.3010,4.59991,2470.04,2020-5-14T14:29:49Z
2020-05-14T12:32:10Z,42.805,6.029,13.2998,4.59992,2470.017,2020-5-14T14:32:52Z
2020-05-14T12:35:13Z,42.805,6.029,13.3005,4.59998,2470.053,2020-5-14T14:35:55Z
2020-05-14T12:38:16Z,42.805,6.029,13.3000,4.59999,2470.053,2020-5-14T14:38:58Z
2020-05-14T12:41:20Z,42.805,6.029,13.2997,4.59998,2470.04,2020-5-14T14:42:01Z
2020-05-14T12:44:23Z,42.805,6.029,13.2995,4.59992,2470.077,2020-5-14T14:45:05Z
2020-05-14T12:47:26Z,42.805,6.029,13.3000,4.59986,2470.053,2020-5-14T14:48:08Z
2020-05-14T12:50:29Z,42.805,6.029,13.3004,4.59992,2469.979,2020-5-14T14:51:11Z
2020-05-14T12:53:33Z,42.805,6.029,13.2993,4.59991,2470.04,2020-5-14T14:54:14Z
2020-05-14T12:56:36Z,42.805,6.029,13.2992,4.59995,2470.04,2020-5-14T14:57:18Z
2020-05-14T12:59:39Z,42.805,6.029,13.2996,4.60003,2470.04,2020-5-14T15:00:21Z
2020-05-14T13:02:42Z,42.805,6.029,13.3008,4.59998,2470.017,2020-5-14T15:03:24Z
2020-05-14T13:05:45Z,42.805,6.029,13.3006,4.59990,2470.063,2020-5-14T15:06:27Z
2020-05-14T13:08:49Z,42.805,6.029,13.3004,4.59996,2470.03,2020-5-14T15:09:31Z
2020-05-14T13:11:52Z,42.805,6.029,13.2996,4.59991,2470.04,2020-5-14T15:12:34Z
2020-05-14T13:14:56Z,42.805,6.029,13.2998,4.59997,2470.053,2020-5-14T15:15:37Z
2020-05-14T13:17:59Z,42.805,6.029,13.2997,4.60001,2470.077,2020-5-14T15:18:41Z
2020-05-14T13:21:02Z,42.805,6.029,13.3002,4.59999,2470.053,2020-5-14T15:21:44Z
2020-05-14T13:24:05Z,42.805,6.029,13.3009,4.60003,2470.1,2020-5-14T15:24:47Z
2020-05-14T13:27:08Z,42.805,6.029,13.3000,4.60004,2470.063,2020-5-14T15:27:50Z
2020-05-14T13:30:12Z,42.805,6.029,13.3001,4.59997,2470.04,2020-5-14T15:30:54Z
2020-05-14T13:33:15Z,42.805,6.029,13.3006,4.59996,2470.053,2020-5-14T15:33:57Z
2020-05-14T13:36:18Z,42.805,6.029,13.3015,4.59995,2470.03,2020-5-14T15:37:00Z
2020-05-14T13:39:21Z,42.805,6.029,13.2996,4.59991,2470.03,2020-5-14T15:40:03Z
2020-05-14T13:42:25Z,42.805,6.029,13.2997,4.59991,2470.04,2020-5-14T15:43:07Z
2020-05-14T13:45:28Z,42.805,6.029,13.2996,4.59993,2470.04,2020-5-14T15:46:10Z
2020-05-14T13:48:31Z,42.805,6.029,13.2990,4.59987,2470.04,2020-5-14T15:49:13Z
2020-05-14T13:51:34Z,42.805,6.029,13.2992,4.59989,2470.04,2020-5-14T15:52:16Z
2020-05-14T13:54:38Z,42.805,6.029,13.2991,4.59992,2470.077,2020-5-14T15:55:20Z
2020-05-14T13:57:41Z,42.805,6.029,13.2993,4.59994,2470.063,2020-5-14T15:58:23Z
2020-05-14T14:00:44Z,42.805,6.029,13.2992,4.59990,2470.077,2020-5-14T16:01:26Z
2020-05-14T14:03:48Z,42.805,6.029,13.3003,4.59996,2470.053,2020-5-14T16:04:29Z
2020-05-14T14:06:51Z,42.805,6.029,13.3009,4.59990,2470.053,2020-5-14T16:07:33Z
2020-05-14T14:09:54Z,42.805,6.029,13.3003,4.59990,2470.053,2020-5-14T16:10:36Z
2020-05-14T14:12:57Z,42.805,6.029,13.2992,4.59991,2470.04,2020-5-14T16:13:39Z
2020-05-14T14:16:01Z,42.805,6.029,13.2996,4.59996,2470.03,2020-5-14T16:16:42Z
2020-05-14T14:19:04Z,42.805,6.029,13.2993,4.59988,2470.063,2020-5-14T16:19:46Z
2020-05-14T14:22:07Z,42.805,6.029,13.2993,4.59989,2470.03,2020-5-14T16:22:49Z
2020-05-14T14:25:10Z,42.805,6.029,13.2992,4.59991,2470.017,2020-5-14T16:25:52Z
2020-05-14T14:28:14Z,42.805,6.029,13.2996,4.59996,2470.077,2020-5-14T16:28:56Z
2020-05-14T14:31:17Z,42.805,6.029,13.3003,4.59998,2470.017,2020-5-14T16:31:59Z
2020-05-14T14:34:20Z,42.805,6.029,13.2991,4.59992,2470.063,2020-5-14T16:35:02Z
2020-05-14T14:37:23Z,42.805,6.029,13.2996,4.59993,2470.053,2020-5-14T16:38:05Z
2020-05-14T14:40:27Z,42.805,6.029,13.2995,4.59988,2470.063,2020-5-14T16:41:09Z
2020-05-14T14:43:30Z,42.805,6.029,13.2996,4.59993,2470.04,2020-5-14T16:44:12Z
2020-05-14T14:46:33Z,42.805,6.029,13.3004,4.60005,2470.03,2020-5-14T16:47:15Z
2020-05-14T14:49:36Z,42.805,6.029,13.2997,4.59991,2470.03,2020-5-14T16:50:18Z
2020-05-14T14:52:40Z,42.805,6.029,13.2991,4.59988,2470.007,2020-5-14T16:53:21Z
2020-05-14T14:55:43Z,42.805,6.029,13.2991,4.59991,2470.04,2020-5-14T16:56:25Z
2020-05-14T14:58:46Z,42.805,6.029,13.3007,4.59995,2470.053,2020-5-14T16:59:28Z
2020-05-14T15:01:49Z,42.805,6.029,13.2994,4.59995,2470.017,2020-5-14T17:02:31Z
2020-05-14T15:04:53Z,42.805,6.029,13.3007,4.59995,2470.053,2020-5-14T17:05:34Z
2020-05-14T15:07:56Z,42.805,6.029,13.2989,4.59999,2470.053,2020-5-14T17:08:38Z
2020-05-14T15:10:59Z,42.805,6.029,13.3000,4.59998,2470.077,2020-5-14T17:11:41Z
2020-05-14T15:14:02Z,42.805,6.029,13.3006,4.59997,2470.03,2020-5-14T17:14:44Z